Current weather by "City, St" or "zip code"  
 
Advertise Here

Current Conditions: Unknown Station

Unknown Precip


43.0 F

Last Updated on Feb 28 2021, 6:55 am EST
Humidity: 76%
Wind Speed: E 5.8 mph
Barometer 30.03 in
Dewpoint: 35.6 F
Visibility: 10.00 mi
Precip: --
Heat Index: NA
Wind Chill: 39 F
Current conditions at:

Unknown Station (KPJC)

Lat: NULL Lon: 0

Local Radar Image active severe weather and emergency alerts image image weather storm and storm spotter reports image weather observation monitoring service image
Local
Radar
Active
Alerts
Storm Reports Obs
Monitoring

Sign-up For Email & Text Message Weather Alert Notification Services


Advertise Here

Observation History for Unknown Station


Time Wind
(mph)
Vis
(mi)
Weather Precip (in) Temperature (F) Relative
Humidity
Wind
Chill
(F)
Heat
Index
(F)
Pressure
Air Dwpt altimeter
(in)
sea level
(mb)
Rmks
6:55 am EST E 5.8 10.00 Unknown Precip -- 43.0 35.6 76% 39 NA 30.03 M
5:55 am EST E 5.8 10.00 Overcast -- 41.0 35.6 81% 37 NA 30.07 M
4:55 am EST E 4.6 10.00 Overcast -- 34.0 33.8 100% 30 NA 30.10 M
3:55 am EST N 0.0 7.00 Fair -- 32.0 32.0 100% NA NA 30.11 M
2:55 am EST N 0.0 7.00 Fair -- 32.0 32.0 100% NA NA 30.14 M
1:55 am EST N 0.0 5.00 Fog/Mist -- 30.0 30.2 100% NA NA 30.18 M
12:55 am EST N 0.0 7.00 Fair -- 32.0 32.0 100% NA NA 30.19 M
11:55 pm EST N 0.0 7.00 Fair -- 30.0 30.2 100% NA NA 30.21 M
10:55 pm EST N 0.0 7.00 Fair -- 30.0 30.2 100% NA NA 30.24 M
9:55 pm EST N 0.0 5.00 Fog/Mist -- 30.0 30.2 100% NA NA 30.23 M
8:55 pm EST N 0.0 7.00 Fair -- 32.0 32.0 100% NA NA 30.23 M
7:55 pm EST N 0.0 10.00 Fair -- 32.0 32.0 100% NA NA 30.21 M
6:55 pm EST N 0.0 10.00 Fair -- 37.0 33.8 87% NA NA 30.20 M
5:55 pm EST W 4.6 10.00 Fair -- 48.0 35.6 62% 46 NA 30.18 M
4:55 pm EST W 3.5 G 9.2 10.00 Fair -- 50.0 37.4 62% NA NA 30.15 M
3:55 pm EST W 4.6 10.00 Partly Cloudy -- 52.0 37.4 58% 51 NA 30.12 M
2:55 pm EST W 8.1 10.00 Overcast -- 50.0 39.2 67% 47 NA 30.10 M
1:55 pm EST W 5.8 10.00 Overcast -- 46.0 41.0 82% 43 NA 30.07 M
12:55 pm EST W 4.6 10.00 Overcast -- 46.0 42.8 87% 44 NA 30.05 M
11:55 am EST W 6.9 10.00 Overcast -- 46.0 42.8 87% 42 NA 30.04 M
10:55 am EST N 0.0 10.00 Light Rain -- 43.0 42.8 100% NA NA 30.00 M
9:55 am EST N 0.0 10.00 Overcast -- 41.0 41.0 100% NA NA 30.00 M
8:55 am EST N 0.0 10.00 Overcast -- 41.0 37.4 87% NA NA 29.97 M
7:55 am EST E 5.8 10.00 Overcast -- 43.0 35.6 76% 39 NA 29.96 M

Regional Weather Observation


()


F

()


F

()


F

()


F

()


F

()


F
Advertise Here

Advertise Here